This is the latest recevied weather packets stored in our database for station/object VA3WWD-2. If no packets are shown the sender has not sent any weather packets the latest 10 day(s).
| Time | Temp. | Humidity | Pressure | Rain* | Wind** | Luminosity | Snow |
|---|---|---|---|---|---|---|---|
| 1777752341 | 3.33° C | 48% | - | 0 mm | 0 m/s | - | - |
| 1777751742 | 3.33° C | 49% | - | 0 mm | 0 m/s | - | - |
| 1777751146 | 3.33° C | 49% | - | 0 mm | 0 m/s | - | - |
| 1777750249 | 3.33° C | 47% | - | 0 mm | 0 m/s | - | - |
| 1777749948 | 3.89° C | 47% | - | 0 mm | 0 m/s | - | - |
| 1777749650 | 3.89° C | 48% | - | 0 mm | 0 m/s | - | - |
| 1777749352 | 2.78° C | 47% | - | 0 mm | 0 m/s | - | - |
| 1777748455 | 3.89° C | 49% | - | 0 mm | 0 m/s | - | - |
| 1777748154 | 3.33° C | 50% | - | 0 mm | 0 m/s | - | - |
| 1777747856 | 3.89° C | 49% | - | 0 mm | 0 m/s | - | - |
| 1777747258 | 3.33° C | 50% | - | 0 mm | 0 m/s | - | - |
| 1777746960 | 3.33° C | 49% | - | 0 mm | 0 m/s | - | - |
| 1777746361 | 3.33° C | 56% | - | 0 mm | 0 m/s | - | - |
| 1777746063 | 2.78° C | 55% | - | 0 mm | 0 m/s | - | - |
| 1777745166 | 3.33° C | 45% | - | 0 mm | 0 m/s | - | - |
| 1777744868 | 3.89° C | 47% | - | 0 mm | 0 m/s | - | - |
| 1777744567 | 3.33° C | 47% | - | 0 mm | 0 m/s | - | - |
| 1777743971 | 3.89° C | 48% | - | 0 mm | 0 m/s | - | - |
| 1777743074 | 3.89° C | 45% | - | 0 mm | 0 m/s | - | - |
| 1777742177 | 3.89° C | 43% | - | 0 mm | 0 m/s | - | - |
| 1777740979 | 4.44° C | 37% | - | 0 mm | 0 m/s | - | - |
| 1777740681 | 3.89° C | 37% | - | 0 mm | 0 m/s | - | - |
| 1777739185 | 3.89° C | 40% | - | 0 mm | 0 m/s | - | - |
| 1777738887 | 5° C | 40% | - | 0 mm | 0 m/s | - | - |
| 1777738589 | 4.44° C | 40% | - | 0 mm | 0 m/s | - | - |
* Rain latest hour (hover to see other rain measurements)
** Current wind speed in m/s (hover to see current wind gust speed)